Change the Weather History Date:

Thursday, September 27, 2012

  Actual Average Record
Temperature  
Mean Temperature 77 °F -  
Max Temperature 86 °F 80 °F 90 °F (2011)
Min Temperature 68 °F 64 °F 55 °F (2000)
Cooling Degree Days 12    
Growing Degree Days 27 (Base 50)    
Moisture  
Dew Point 71 °F    
Average Humidity 78    
Maximum Humidity 97    
Minimum Humidity 60    
Precipitation  
Precipitation 0.00 in - - ()
Sea Level Pressure  
Sea Level Pressure 30.13 in    
Wind  
Wind Speed 3 mph (East)    
Max Wind Speed 12 mph    
Max Gust Speed -    
Visibility 10 miles    
Events Rain    
Averages and records for this station are not official NWS values.
T = Trace of Precipitation, MM = Missing Value Source: NWS Daily Summary

Daily Weather History Graph

Daily Weather History Graph

Search for Another Location

Airport or City:

Trip Planner

Search our weather history database for the weather conditions in past years. The results will help you decide how hot, cold, wet, or windy it might be!

Date:

Astronomy

Sep. 27, 2012 Rise Set
Actual Time 7:16 AM EDT 7:14 PM EDT
Civil Twilight 6:51 AM EDT 7:38 PM EDT
Nautical Twilight 6:23 AM EDT 8:06 PM EDT
Astronomical Twilight 5:54 AM EDT 8:35 PM EDT
Moon 5:40 PM EDT (9/27) 4:50 AM EDT (9/27)
Length of Visible Light 12h 46m
Length of Day
11h 57m
Waxing Gibbous, 94% of the Moon is Illuminated
Sep 27
Waxing Gibbous
Sep 29
Full
Oct 8
Last Quarter
Oct 15
New
Oct 21
First Quarter

Hourly Weather History & Observations

Time (EDT) Temp. Heat Index Dew Point Humidity Pressure Visibility Wind Dir Wind Speed Gust Speed Precip Events Conditions
12:55 AM 74.7 °F - 72.0 °F 91% 30.14 in 10.0 mi ENE 3.5 mph - N/A   Clear
1:55 AM 73.9 °F - 72.1 °F 94% 30.14 in 10.0 mi Calm Calm - N/A   Mostly Cloudy
2:55 AM 73.4 °F - 71.8 °F 95% 30.14 in 10.0 mi Calm Calm - N/A   Clear
3:55 AM 72.0 °F - 70.9 °F 96% 30.12 in 10.0 mi Calm Calm - N/A   Overcast
4:55 AM 72.7 °F - 71.4 °F 96% 30.12 in 10.0 mi Calm Calm - N/A   Clear
5:55 AM 71.6 °F - 70.5 °F 96% 30.14 in 10.0 mi Calm Calm - N/A   Clear
6:55 AM 71.1 °F - 70.2 °F 97% 30.14 in 10.0 mi Calm Calm - N/A   Clear
7:55 AM 72.0 °F - 70.7 °F 96% 30.15 in 10.0 mi Calm Calm - N/A   Scattered Clouds
8:55 AM 76.1 °F - 72.5 °F 89% 30.16 in 10.0 mi NE 4.6 mph - N/A   Clear
9:48 AM 80.6 °F 85.4 °F 73.4 °F 79% 30.17 in 10.0 mi East 6.9 mph - N/A   Mostly Cloudy
9:55 AM 81.9 °F 87.3 °F 73.2 °F 75% 30.18 in 10.0 mi East 6.9 mph - N/A   Mostly Cloudy
10:01 AM 80.6 °F 85.4 °F 73.4 °F 79% 30.17 in 10.0 mi ENE 4.6 mph - N/A   Scattered Clouds
10:03 AM 80.6 °F 84.6 °F 71.6 °F 74% 30.18 in 10.0 mi Variable 3.5 mph - N/A   Mostly Cloudy
10:34 AM 82.4 °F 87.2 °F 71.6 °F 70% 30.18 in 10.0 mi NE 5.8 mph - N/A   Mostly Cloudy
10:55 AM 81.1 °F 84.9 °F 70.5 °F 70% 30.19 in 10.0 mi ENE 5.8 mph - N/A   Overcast
11:55 AM 82.8 °F 86.9 °F 70.2 °F 66% 30.17 in 10.0 mi SE 3.5 mph - N/A   Partly Cloudy
12:55 PM 85.8 °F 91.1 °F 70.9 °F 61% 30.15 in 10.0 mi East 6.9 mph - N/A   Mostly Cloudy
1:44 PM 82.4 °F 87.2 °F 71.6 °F 70% 30.13 in 10.0 mi East 8.1 mph - N/A   Light Drizzle
1:54 PM 82.4 °F 87.2 °F 71.6 °F 70% 30.13 in 10.0 mi ENE 5.8 mph - N/A   Overcast
1:55 PM 81.9 °F 86.0 °F 70.9 °F 69% 30.13 in 10.0 mi NE 4.6 mph - 0.00 in   Overcast
2:01 PM 82.4 °F 87.2 °F 71.6 °F 70% 30.13 in 10.0 mi ENE 4.6 mph - N/A   Overcast
2:11 PM 82.4 °F 87.2 °F 71.6 °F 70% 30.12 in 10.0 mi ENE 3.5 mph - N/A Rain Light Rain
2:26 PM 84.2 °F 89.6 °F 71.6 °F 66% 30.12 in 10.0 mi SSE 4.6 mph - N/A   Mostly Cloudy
2:40 PM 84.2 °F 89.6 °F 71.6 °F 66% 30.11 in 10.0 mi East 9.2 mph - N/A   Scattered Clouds
2:55 PM 83.7 °F 88.3 °F 70.7 °F 65% 30.10 in 10.0 mi ESE 10.4 mph - 0.00 in   Partly Cloudy
3:55 PM 84.9 °F 89.1 °F 69.8 °F 60% 30.09 in 10.0 mi ESE 11.5 mph - N/A   Clear
4:55 PM 82.6 °F 85.7 °F 68.2 °F 62% 30.08 in 10.0 mi ESE 10.4 mph - N/A   Clear
5:55 PM 78.3 °F - 67.1 °F 68% 30.09 in 10.0 mi ESE 9.2 mph - N/A   Partly Cloudy
6:55 PM 77.7 °F - 67.6 °F 71% 30.09 in 10.0 mi SE 3.5 mph - N/A   Clear
7:55 PM 75.9 °F - 67.3 °F 74% 30.09 in 10.0 mi Calm Calm - N/A   Clear
8:55 PM 73.9 °F - 68.0 °F 82% 30.11 in 10.0 mi Calm Calm - N/A   Overcast
9:55 PM 72.3 °F - 68.4 °F 87% 30.12 in 10.0 mi Calm Calm - N/A   Clear
10:55 PM 69.8 °F - 67.1 °F 91% 30.12 in 10.0 mi Calm Calm - N/A   Clear
11:55 PM 68.7 °F - 66.7 °F 93% 30.11 in 10.0 mi Calm Calm - N/A   Clear